User: anonymous   Login
Location: Bowman Observatory
(41.0326°N, 73.6210°W)
Time: 22:14:56
(UTC-05:00)
Language:

Cosmos 2298 Rocket - Orbit

View from above orbital plane
View from above orbital plane
View from above satellite
View from above satellite

Ground track
Ground track

The orbit data is extracted from the following two-line orbital elements,

1 23432U 94083B   17350.95257146 -.00000002 +00000-0 +86526-5 0  9998
2 23432 074.0327 323.7553 0004386 138.5559 251.7053 14.33488294202298
Epoch (UTC): 16 December 2017 22:51:42
Eccentricity: 0.0004386
inclination: 74.0327°
perigee height: 777 km
apogee height: 783 km
right ascension of ascending node: 323.7553°
argument of perigee: 138.5559°
revolutions per day: 14.33488294
mean anomaly at epoch: 251.7053°
orbit number at epoch: 20229

The dashed part of the orbit path shows where the satellite is in the earth's shadow,  

DLR